Regional Weather Roundup
Issued by NWS

Home | Current Version | Previous Version | Graphics & Text | Print | Product List | Glossary On
Versions: 1 2 3 4 5 6 7 8 9 10 11 12 13 14 15 16 17 18 19 20 21 22 23 24 25 26 27 28 29 30 31 32 33 34 35 36 37 38 39 40 41 42 43 44 45 46 47 48 49 50
000
ASUS43 KMKX 310300
RWRWI

WISCONSIN REGIONAL WEATHER ROUNDUP
NATIONAL WEATHER SERVICE MILWAUKEE/SULLIVAN WI
1000 PM CDT WED JUL 30 2014

NOTE: "FAIR" INDICATES FEW OR NO CLOUDS BELOW 12,000 FEET WITH NO
SIGNIFICANT WEATHER AND/OR OBSTRUCTIONS TO VISIBILITY.

WIZ001-002-006>008-014>016-023>028-310400-
NORTHWEST WISCONSIN

CITY           SKY/WX    TMP DP  RH WIND       PRES   REMARKS
SUPERIOR ARPT  PTCLDY    69  60  74 W6        29.98R
ASHLAND        MOCLDY    62  60  93 CALM      29.98R
HAYWARD        PTCLDY    61  60  97 CALM      30.00R
SIREN          CLEAR     66  58  74 W5        30.02S
RICE LAKE      CLEAR     63  60  92 CALM      30.03R
LADYSMITH      RAIN      63  60  92 CALM      30.03R
EAU CLAIRE     CLEAR     62  62 100 SW3       30.01S
MENOMONIE      CLEAR     67  58  72 CALM      30.02S
NEW RICHMOND   CLEAR     65  57  76 W5        30.04R
OSCEOLA        CLEAR     66  60  81 W3        30.05R
$$

WIZ003>005-009-010-017-018-310400-
NORTH CENTRAL WISCONSIN

CITY           SKY/WX    TMP DP  RH WIND       PRES   REMARKS
WOODRUFF       PTCLDY    59  51  74 CALM      30.00S
RHINELANDER    PTCLDY    57  53  86 CALM      30.01S
EAGLE RIVER    PTCLDY    55  55 100 CALM      30.00S
LAND O LAKES   FOG       54  53  99 CALM      30.01S VSB 1/2
PHILLIPS       CLOUDY    61  57  85 CALM      30.01R
TOMAHAWK       PTCLDY    58  57  96 CALM      30.01S
MEDFORD        MOCLDY    62  59  91 W6        30.02S
MERRILL        PTCLDY    61  60  97 W3        30.00S
$$

WIZ029-030-035-036-043>047-310400-
CENTRAL WISCONSIN

CITY           SKY/WX    TMP DP  RH WIND       PRES   REMARKS
WAUSAU         PTCLDY    63  58  83 CALM      29.98F
MOSINEE        CLOUDY    63  61  94 CALM      30.01S
MARSHFIELD     RAIN      63  59  87 W10       30.02R FOG
STEVENS POINT  CLOUDY    66  54  65 W5        30.01R
WAUPACA        MOCLDY    67  54  61 SW5       30.00R
WAUTOMA        NOT AVBL
WISC RAPIDS    CLOUDY    67  57  70 W6        30.02R
CAMP DOUGLAS   NOT AVBL
$$

WIZ011>013-019>022-031-037>040-048>050-310400-
NORTHEAST WISCONSIN

CITY           SKY/WX    TMP DP  RH WIND       PRES   REMARKS
ANTIGO         PTCLDY    55  54  97 CALM      30.02S
STURGEON BAY   CLOUDY    61  52  72 SW10      29.97S
GREEN BAY      LGT RAIN  62  59  90 N9        30.00R
MANITOWOC      NOT AVBL
APPLETON       PTCLDY    66  52  59 W7        29.99S
CLINTONVILLE   CLOUDY    66  52  59 N16       30.01R
OSHKOSH        PTCLDY    65  53  65 VRB3      30.00R
$$

WIZ032>034-041-042-053>061-310400-
SOUTHWEST WISCONSIN

CITY           SKY/WX    TMP DP  RH WIND       PRES   REMARKS
LA CROSSE      CLEAR     70  62  76 S3        30.02R
SPARTA         MOCLDY    65  61  85 CALM      30.04R
VIROQUA        MOCLDY    65  61  85 SW3       30.06R
BOSCOBEL       CLEAR     64  61  90 CALM      30.05R
PRAIRIE DU CHI PTCLDY    66  60  81 CALM      30.04R
PLATTEVILLE    FAIR      67  57  71 CALM      30.06S
$$

WIZ056-057-062-063-064-067-068-310400-
SOUTH CENTRAL WISCONSIN

CITY           SKY/WX    TMP DP  RH WIND       PRES   REMARKS
BARABOO/DELLS  CLEAR     61  53  74 CALM      30.04R
LONE ROCK      NOT AVBL
WATERTOWN      CLEAR     61  57  87 CALM      30.02S
MADISON        CLEAR     61  53  75 NW3       30.04R
MIDDLETON      FAIR      59  55  84 CALM      30.05R
MONROE         CLEAR     68  52  56 W6        30.05R
JANESVILLE     CLEAR     63  55  77 CALM      30.03R
$$

WIZ051-052-058>065-066-070>072-310400-
SOUTHEAST WISCONSIN

CITY           SKY/WX    TMP DP  RH WIND       PRES   REMARKS
MILWAUKEE      PTCLDY    63  53  70 S7        30.02R
WAUKESHA       CLEAR     59  52  77 CALM      30.03R
MILWAUKEE/TIMM CLEAR     63  54  72 S6        30.02R
RACINE         CLEAR     61  55  81 S7        30.04S
BURLINGTON     CLEAR     55  53  92 CALM      30.03R
KENOSHA        CLEAR     60  56  86 S8        30.04R
FOND DU LAC    PTCLDY    63  54  72 SW5       30.01R
SHEBOYGAN      PTCLDY    58  51  78 S5        30.00S
WEST BEND      PTCLDY    61  54  77 CALM      30.01S
JUNEAU         CLEAR     64  51  64 CALM      30.04R
$$

LSZ147-162-310400-
LAKE SUPERIOR

STATION/POSITION TIME  TEMP    WIND        PRES    WAVE
                       AIR SEA DIR/SP/G            HT/PER
                 (UTC) (F)     (DEG/KT/KT) (MB)    (FT/S)
W MID LAKE BUOY  0150   50 43  210/  4/  4 1014.1F   1/ 4
PORT WING        0200   67     160/  3/  4 1014.2S
SAXON HARBOR     0200          190/  4/  7 1014.6R
$$

LMZ867-665-643>646-310400-
LAKE MICHIGAN

STATION/POSITION TIME  TEMP    WIND        PRES    WAVE
                       AIR SEA DIR/SP/G            HT/PER
                 (UTC) (F)     (DEG/KT/KT) (MB)    (FT/S)
N MID LAKE BUOY  0150   57 54  210/  8/  8 1014.6R   0
NORTHPORT PIER   0200   61     200/  2/  5 1014.6S
SISTER BAY       0225   64     280/  7/  8   N/A
ALGOMA LAKESHORE 0251          250/  8/ 10   N/A
KEWAUNEE LAKESHO 0200   62     210/  6/ 10 1014.8R
SHEBOYGAN LAKESH 0200   63     190/ 10/ 10 1015.9R
PORT WASHINGTON  0200   63     210/  1/  3 1016.6
ATWATER BUOY     0200   64     160/ 10     1017.2R
MILWAUKEE LAKESH 0200   64     150/  7/  7   N/A
S MID LAKE BUOY  0150   61 61  170/  4/  4 1016.6R   0
KENOSHA   LAKESH 0200   62     200/  4/  7 1016.3R
$$

TC  - TEMPERATURE IN CELSIUS
VSB - VISIBILITY IN STATUTE MILES
WCI - WIND CHILL INDEX
HX  - HEAT INDEX




USA.gov is the U.S. government's official web portal to all federal, state and local government web resources and services.